Tracking 28052 objects as of 21-Sep-2023
HD Live streaming from Space Station
objects crossing your sky now

STARLINK-5325

Track STARLINK-5325 now!
10-day predictions
STARLINK-5325 is classified as:


NORAD ID: 55292
Int'l Code: 2023-010Z
Perigee: 577.3 km
Apogee: 581.2 km
Inclination: 70.0 °
Period: 96.1 minutes
Semi major axis: 6950 km
RCS: Unknown
Launch date: January 19, 2023
Source: United States (US)
Launch site: AIR FORCE WESTERN TEST RANGE (AFWTR)
Your satellite tracking list
Your tracking list is empty




NASA's NSSDC Master Catalog

Two Line Element Set (TLE):
1 55292U 23010Z   23263.92064969 -.00001686  00000-0 -13357-3 0  9995
2 55292  70.0004 135.5802 0002790 256.4823 103.6025 14.98311971 38347
Source of the keplerian elements: AFSPC